TimeEST,TemperatureF,Dew PointF,Humidity,Sea Level PressureIn,VisibilityMPH,Wind Direction,Wind SpeedMPH,Gust SpeedMPH,PrecipitationIn,Events,Conditions,WindDirDegrees,DateUTC
12:54 AM,28.9,19.9,69,30.52,10.0,North,5.8,-,N/A,,Overcast,360,2012-11-14 05:54:00
1:54 AM,28.0,19.9,72,30.51,10.0,NNE,6.9,-,N/A,,Overcast,20,2012-11-14 06:54:00
2:54 AM,28.0,19.9,72,30.52,10.0,North,5.8,-,N/A,,Overcast,350,2012-11-14 07:54:00
3:54 AM,28.0,21.0,75,30.51,10.0,North,5.8,-,N/A,,Overcast,10,2012-11-14 08:54:00
4:54 AM,27.0,19.9,75,30.52,10.0,NE,6.9,-,N/A,,Overcast,50,2012-11-14 09:54:00
5:54 AM,27.0,21.0,78,30.53,10.0,NNE,4.6,-,N/A,,Overcast,30,2012-11-14 10:54:00
6:54 AM,28.0,21.0,75,30.55,10.0,NE,3.5,-,N/A,,Overcast,50,2012-11-14 11:54:00
7:54 AM,27.0,21.0,78,30.55,10.0,East,6.9,-,N/A,,Overcast,80,2012-11-14 12:54:00
8:54 AM,28.0,21.0,75,30.56,10.0,East,4.6,-,N/A,,Overcast,80,2012-11-14 13:54:00
9:54 AM,28.0,19.9,72,30.57,10.0,East,4.6,-,N/A,,Overcast,80,2012-11-14 14:54:00
10:54 AM,28.9,21.0,72,30.56,10.0,East,5.8,-,N/A,,Overcast,80,2012-11-14 15:54:00
11:54 AM,30.0,21.0,69,30.53,10.0,NE,6.9,-,N/A,,Mostly Cloudy,50,2012-11-14 16:54:00
12:07 PM,30.2,21.2,69,30.44,10.0,ENE,5.8,-,N/A,,Partly Cloudy,60,2012-11-14 17:07:00
12:54 PM,33.1,21.0,61,30.51,10.0,Calm,Calm,-,N/A,,Clear,0,2012-11-14 17:54:00
1:54 PM,34.0,21.0,59,30.48,10.0,NNE,6.9,-,N/A,,Clear,20,2012-11-14 18:54:00
2:54 PM,35.1,21.0,57,30.47,10.0,ENE,3.5,-,N/A,,Clear,70,2012-11-14 19:54:00
3:54 PM,35.1,21.0,57,30.46,10.0,ENE,3.5,-,N/A,,Clear,60,2012-11-14 20:54:00
4:54 PM,32.0,21.0,64,30.45,10.0,East,3.5,-,N/A,,Clear,100,2012-11-14 21:54:00
5:54 PM,30.9,19.9,64,30.46,10.0,East,3.5,-,N/A,,Clear,80,2012-11-14 22:54:00
6:54 PM,30.0,19.9,66,30.45,10.0,East,3.5,-,N/A,,Clear,100,2012-11-14 23:54:00
7:54 PM,30.0,19.9,66,30.45,10.0,Calm,Calm,-,N/A,,Clear,0,2012-11-15 00:54:00
8:54 PM,28.9,19.9,69,30.45,10.0,Calm,Calm,-,N/A,,Clear,0,2012-11-15 01:54:00
9:54 PM,28.9,19.9,69,30.46,10.0,ESE,3.5,-,N/A,,Clear,120,2012-11-15 02:54:00
10:54 PM,28.0,19.9,72,30.45,10.0,ESE,3.5,-,N/A,,Clear,120,2012-11-15 03:54:00
11:54 PM,28.9,19.9,69,30.43,10.0,SSE,4.6,-,N/A,,Clear,150,2012-11-15 04:54:00